Dayton, OH (45402)

2:14 AM EDT on August 28, 2015 (GMT -0400)
Oregon Historic District | | Change Station
CLOSE
Current Station
Personal Weather Station
Location: Dayton, OH
Elevation: 745 ft
Nearby Weather Stations

Elev 745 ft 39.75 °N, 84.18 °W | Updated 16 seconds ago

Clear
Clear
65.1 °F
Feels Like 65.1 °F
N
0.0
Wind Variable Wind from South
Gusts 0.0 mph

Today
High -- | Low -- °F
--% Chance of Precip.
Yesterday
High -- | Low -- °F
Precip. -- in
7:00 AM 8:14 PM
Waxing Gibbous, 97% visible
Pressure 30.15 in
Visibility 7.0 miles
Clouds Clear
Dew Point 61 °F
Humidity 85%
Rainfall 0.00 in
Snow Depth Not available.
UV 0 out of 12
Pollen 9.80 out of 12
Air Quality Not available.
Flu Activity Not available.
METAR KFFO 280558Z 00000KT 7SM R05L/2800FT BCFG CLR 15/14 A3015 RMK AO2A SLP210 55003
Pressure 30.15 in
Visibility 7.0 miles
Clouds Clear
Dew Point 61 °F
Humidity 85%
Rainfall 0.00 in
Snow Depth Not available.
UV 0 out of 12
Pollen 9.80 out of 12
Air Quality Not available.
Flu Activity Not available.
METAR KFFO 280558Z 00000KT 7SM R05L/2800FT BCFG CLR 15/14 A3015 RMK AO2A SLP210 55003

10-Day Weather Forecast

×

Almanac

Astronomy

Aug. 28, 2015 Rise Set
Actual Time
Civil Twilight
Nautical Twilight
Astronomical Twilight
Moon
Length of Visible Light
Length of Day
Tomorrow will be .
, % of the Moon is Illuminated

Today's Extremes

State Highs State Lows

Community

WunderPhotos

Upload Photos

1,850,341 photos uploaded!

WunderBlogs® & News

Nearby

Air Quality

  Air Quality AQ Index Pollutant
Not available.

Snow Depth

Station Depth Elevation

Earthquake Activity

City Distance Mag. Time & Date
Minimum magnitude displayed is 2.5.

Coastal Water Temperatures

Place Temperature

Stations

Nearby Weather Stations

Station Location Temp. Windchill Dew Point Humidity Wind Precip. Elev Updated Type